Date String (YYYY-MM-DD hh:mm:ss) UTC,Instrument flags,absolute air pressure of the measurement (hPa),sample flow rate (lpm),inlet stack bypass flow (lpm),air temperature of the measurement (°C),ambient temperature measured by the external sensor (°C),aerosol sample conditioner tube jacket temperature (°C),OPC LED temperature (°C),internal box temperature (°C),relative humidity of the measurement (%),span deviation,mass concentration of particles derived from Lorenz-Mie calculation of OPC scattering (μg/m³),mass concentration of particles derived from Lorenz-Mie calculation of OPC scattering (μg/m³),mass concentration of particles derived from Lorenz-Mie calculation of OPC scattering (μg/m³)
DateTimeUTC,F1_M11,P_M11,Q1_M11,Q2_M11,T1_M11,T2_M11,T3_M11,T4_M11,T5_M11,U1_M11,ZSPAN_M11,X2_M11,X0_M11,X1_M11
2023-05-31 03:00:00,SystemResetWarning,0825.9,4.99,000.00,029.2,027.7,000.0,037.6,030.8,18.9,0000.0,0003.83,0011.21,0002.75
2023-05-31 03:01:00,SystemResetWarning,0825.9,4.98,000.00,029.2,027.7,000.0,037.6,030.9,18.9,0000.0,0003.80,0011.02,0002.78
2023-05-31 03:02:00,SystemResetWarning,0825.9,5.00,000.00,029.2,027.7,000.0,037.6,030.9,19.0,0000.0,0003.75,0010.64,0002.79
2023-05-31 03:03:00,SystemResetWarning,0825.9,5.01,000.00,029.2,027.7,000.0,037.6,030.9,19.2,0000.0,0003.73,0011.34,0002.78
2023-05-31 03:04:00,SystemResetWarning,0826.0,5.00,000.00,029.2,027.7,000.0,037.6,030.9,19.1,0000.0,0003.78,0011.51,0002.79
2023-05-31 03:05:00,SystemResetWarning,0826.0,5.00,000.00,029.3,027.6,000.0,037.6,030.9,19.1,0000.0,0003.82,0011.61,0002.79
2023-05-31 03:06:00,SystemResetWarning,0826.1,5.00,000.00,029.3,027.6,000.0,037.6,030.9,19.1,0000.0,0003.82,0011.80,0002.79
2023-05-31 03:07:00,SystemResetWarning,0826.2,5.01,000.00,029.3,027.6,000.0,037.6,030.9,19.0,0000.0,0003.86,0011.61,0002.80
2023-05-31 03:08:00,SystemResetWarning,0826.2,5.00,000.00,029.3,027.7,000.0,037.6,030.9,18.9,0000.0,0003.86,0010.67,0002.82
2023-05-31 03:09:00,SystemResetWarning,0826.2,4.99,000.00,029.3,027.7,000.0,037.6,030.9,18.7,0000.0,0003.84,0010.34,0002.83
2023-05-31 03:10:00,SystemResetWarning,0826.2,5.00,000.00,029.3,027.7,000.0,037.6,030.9,18.8,0000.0,0003.86,0010.24,0002.85
2023-05-31 03:11:00,SystemResetWarning,0826.2,5.00,000.00,029.3,027.7,000.0,037.6,030.9,18.7,0000.0,0003.89,0010.09,0002.85
2023-05-31 03:12:00,SystemResetWarning,0826.3,5.00,000.00,029.3,027.7,000.0,037.6,030.9,18.6,0000.0,0003.91,0009.91,0002.85
2023-05-31 03:13:00,SystemResetWarning,0826.2,5.00,000.00,029.3,027.6,000.0,037.6,030.8,19.2,0000.0,0003.99,0010.21,0002.87
2023-05-31 03:14:00,SystemResetWarning,0826.3,5.00,000.00,029.3,027.6,000.0,037.6,030.9,19.4,0000.0,0004.01,0009.56,0002.89
2023-05-31 03:15:00,SystemResetWarning,0826.3,5.01,000.00,029.3,027.6,000.0,037.6,030.9,19.5,0000.0,0003.98,0009.71,0002.90
2023-05-31 03:16:00,SystemResetWarning,0826.4,5.01,000.00,029.3,027.7,000.0,037.6,030.9,19.3,0000.0,0003.98,0010.05,0002.92
2023-05-31 03:17:00,SystemResetWarning,0826.4,4.98,000.00,029.3,027.7,000.0,037.7,030.8,19.2,0000.0,0004.02,0010.02,0002.95
2023-05-31 03:18:00,SystemResetWarning,0826.4,5.00,000.00,029.3,027.6,000.0,037.7,030.8,19.6,0000.0,0004.00,0009.60,0002.96
2023-05-31 03:19:00,SystemResetWarning,0826.4,5.00,000.00,029.3,027.6,000.0,037.7,030.8,19.8,0000.0,0004.04,0009.61,0002.98
2023-05-31 03:20:00,SystemResetWarning,0826.4,5.01,000.00,029.3,027.6,000.0,037.7,030.9,19.8,0000.0,0004.04,0009.65,0002.99
2023-05-31 03:21:00,SystemResetWarning,0826.3,5.01,000.00,029.3,027.6,000.0,037.7,030.9,19.6,0000.0,0004.04,0010.01,0002.99
2023-05-31 03:22:00,SystemResetWarning,0826.4,5.00,000.00,029.3,027.6,000.0,037.7,030.8,19.5,0000.0,0004.05,0011.08,0002.99
2023-05-31 03:23:00,SystemResetWarning,0826.5,5.00,000.00,029.3,027.6,000.0,037.7,030.9,19.2,0000.0,0004.07,0011.02,0002.98
2023-05-31 03:24:00,SystemResetWarning,0826.6,5.00,000.00,029.3,027.7,000.0,037.7,030.9,19.0,0000.0,0004.02,0010.96,0002.97
2023-05-31 03:25:00,SystemResetWarning,0826.6,5.00,000.00,029.3,027.7,000.0,037.7,030.9,18.8,0000.0,0003.99,0012.37,0002.95
2023-05-31 03:26:00,SystemResetWarning,0826.6,5.00,000.00,029.3,027.7,000.0,037.7,030.9,18.9,0000.0,0003.99,0012.29,0002.96
2023-05-31 03:27:00,SystemResetWarning,0826.6,5.00,000.00,029.3,027.7,000.0,037.7,030.9,18.4,0000.0,0003.99,0012.43,0002.97
2023-05-31 03:28:00,SystemResetWarning,0826.6,5.00,000.00,029.3,027.7,000.0,037.7,030.9,18.5,0000.0,0003.90,0012.31,0002.95
2023-05-31 03:29:00,SystemResetWarning,0826.6,5.00,000.00,029.3,027.7,000.0,037.7,030.9,18.3,0000.0,0003.89,0012.29,0002.95
2023-05-31 03:30:00,SystemResetWarning,0826.6,5.00,000.00,029.3,027.7,000.0,037.7,030.9,18.5,0000.0,0003.88,0012.37,0002.94
2023-05-31 03:31:00,SystemResetWarning,0826.6,5.00,000.00,029.3,027.7,000.0,037.7,030.9,18.8,0000.0,0003.87,0012.30,0002.94
2023-05-31 03:32:00,SystemResetWarning,0826.6,5.00,000.00,029.3,027.7,000.0,037.7,030.9,18.6,0000.0,0003.85,0012.18,0002.94
2023-05-31 03:33:00,SystemResetWarning,0826.6,5.00,000.00,029.3,027.7,000.0,037.7,030.9,18.5,0000.0,0003.86,0011.38,0002.93
2023-05-31 03:34:00,SystemResetWarning,0826.6,5.00,000.00,029.3,027.7,000.0,037.7,030.9,18.4,0000.0,0003.86,0011.22,0002.96
2023-05-31 03:35:00,SystemResetWarning,0826.6,5.00,000.00,029.3,027.7,000.0,037.7,030.9,18.3,0000.0,0003.84,0011.08,0002.95
2023-05-31 03:36:00,SystemResetWarning,0826.6,5.00,000.00,029.3,027.7,000.0,037.7,030.9,18.3,0000.0,0003.84,0009.61,0002.95
2023-05-31 03:37:00,SystemResetWarning,0826.6,5.00,000.00,029.3,027.7,000.0,037.7,030.9,18.2,0000.0,0003.82,0009.10,0002.94
2023-05-31 03:38:00,SystemResetWarning,0826.6,5.00,000.00,029.3,027.7,000.0,037.7,030.9,18.3,0000.0,0003.84,0008.76,0002.93
2023-05-31 03:39:00,SystemResetWarning,0826.6,5.00,000.00,029.3,027.7,000.0,037.7,030.9,18.3,0000.0,0003.87,0008.50,0002.93
2023-05-31 03:40:00,SystemResetWarning,0826.6,5.00,000.00,029.3,027.7,000.0,037.7,030.9,18.3,0000.0,0003.88,0008.64,0002.92
2023-05-31 03:41:00,SystemResetWarning,0826.6,4.99,000.00,029.3,027.7,000.0,037.7,030.9,18.3,0000.0,0003.85,0008.78,0002.93
2023-05-31 03:42:00,SystemResetWarning,0826.6,5.00,000.00,029.3,027.7,000.0,037.7,030.9,18.2,0000.0,0003.87,0009.74,0002.92
2023-05-31 03:43:00,SystemResetWarning,0826.6,5.00,000.00,029.3,027.6,000.0,037.7,030.9,18.1,0000.0,0003.89,0010.98,0002.91
2023-05-31 03:44:00,SystemResetWarning,0826.6,5.00,000.00,029.3,027.6,000.0,037.7,030.9,18.0,0000.0,0003.86,0011.29,0002.91
2023-05-31 03:45:00,SystemResetWarning,0826.5,5.00,000.00,029.3,027.6,000.0,037.7,030.9,18.0,0000.0,0003.85,0011.34,0002.90
2023-05-31 03:46:00,SystemResetWarning,0826.5,5.00,000.00,029.3,027.6,000.0,037.7,030.9,18.0,0000.0,0003.85,0011.33,0002.90
2023-05-31 03:47:00,SystemResetWarning,0826.6,5.01,000.00,029.3,027.6,000.0,037.7,030.9,17.9,0000.0,0003.84,0011.25,0002.90
2023-05-31 03:48:00,SystemResetWarning,0826.5,5.00,000.00,029.3,027.6,000.0,037.7,030.9,17.8,0000.0,0003.87,0011.39,0002.90
2023-05-31 03:49:00,SystemResetWarning,0826.6,5.00,000.00,029.3,027.6,000.0,037.7,030.9,17.7,0000.0,0003.85,0012.06,0002.89
2023-05-31 03:50:00,SystemResetWarning,0826.6,5.00,000.00,029.3,027.6,000.0,037.7,030.9,17.8,0000.0,0003.86,0012.45,0002.90
2023-05-31 03:51:00,SystemResetWarning,0826.6,5.00,000.00,029.3,027.6,000.0,037.7,030.9,17.4,0000.0,0003.88,0013.03,0002.91
2023-05-31 03:52:00,SystemResetWarning,0826.6,4.98,000.00,029.3,027.7,000.0,037.7,030.9,17.2,0000.0,0003.89,0013.30,0002.90
2023-05-31 03:53:00,SystemResetWarning,0826.6,5.01,000.00,029.3,027.7,000.0,037.7,030.9,17.1,0000.0,0003.88,0012.34,0002.89
2023-05-31 03:54:00,SystemResetWarning,0826.6,5.01,000.00,029.3,027.7,000.0,037.7,030.9,17.1,0000.0,0003.89,0011.29,0002.90
2023-05-31 03:55:00,SystemResetWarning,0826.6,5.01,000.00,029.3,027.7,000.0,037.7,030.9,17.1,0000.0,0003.94,0010.44,0002.92
2023-05-31 03:56:00,SystemResetWarning,0826.6,4.98,000.00,029.3,027.7,000.0,037.7,030.9,17.4,0000.0,0003.94,0010.35,0002.93
2023-05-31 03:57:00,SystemResetWarning,0826.6,5.00,000.00,029.3,027.7,000.0,037.7,030.9,18.3,0000.0,0003.95,0011.01,0002.94
2023-05-31 03:58:00,SystemResetWarning,0826.6,5.00,000.00,029.3,027.7,000.0,037.7,030.9,18.8,0000.0,0004.00,0011.07,0002.95
2023-05-31 03:59:00,SystemResetWarning,0826.6,5.00,000.00,029.3,027.7,000.0,037.7,030.9,18.2,0000.0,0003.99,0010.90,0002.98
